Simultaneous Nadir Overpasses (SNOs) Predictions

Prediction of SNOs between AQUA and METOP-C Satellite Orbit:

Table of predicted SNOs for the next 14.0 days since TLE Epoch: 5/18/2024
Index Date (AQUA) Time (AQUA) Lat,Lon (AQUA) SZA (AQUA ) Date (METOP-C) Time (METOP-C) Lat,Lon (METOP-C) SZA (METOP-C ) Distance(km) Time Diff (sec)
1 05/19/2024 09:47:31 -75.34,-148.59 124.66 05/19/2024 09:46:32 -75.31,-148.55 124.68 3.06 59
2 05/19/2024 10:36:55 75.38, 18.95 55.38 05/19/2024 10:37:11 75.39, 19.02 55.39 2.40 16
3 05/22/2024 01:08:49 75.13, 161.70 54.60 05/22/2024 01:07:38 75.08, 160.50 54.55 34.58 71
4 05/22/2024 01:58:15 -75.38, -31.33 125.17 05/22/2024 01:58:13 -75.37, -31.31 125.17 1.13 2
5 05/22/2024 02:47:39 75.42, 136.20 54.88 05/22/2024 02:48:52 75.44, 136.25 54.90 2.69 73
6 05/24/2024 17:19:34 75.37, -81.58 54.33 05/24/2024 17:19:14 75.35, -81.62 54.32 2.39 20
7 05/24/2024 18:08:56 -75.41, 85.96 125.63 05/24/2024 18:09:54 -75.40, 85.88 125.64 2.32 58
8 05/27/2024 08:40:48 -75.34,-131.78 126.15 05/27/2024 08:40:15 -75.34,-131.88 126.14 2.83 33
9 05/27/2024 09:30:12 75.40, 35.72 53.91 05/27/2024 09:30:54 75.40, 35.65 53.92 2.33 42
10 05/30/2024 00:02:01 75.37, 177.88 53.48 05/30/2024 00:01:13 75.37, 177.96 53.48 2.47 48
11 05/30/2024 00:51:23 -75.42, -14.58 126.48 05/30/2024 00:51:53 -75.43, -14.51 126.47 2.81 30



Historial Predications of SNOs between AQUA and METOP-C
